www.pogodaiklimat.ru
ПОГОДА в Портервилле
Время
и дата
07:56 19.07
08:56 19.07
09:56 19.07
10:56 19.07
11:56 19.07
12:56 19.07
13:56 19.07
14:56 19.07
15:56 19.07
16:56 19.07
17:56 19.07
18:56 19.07
19:56 19.07
20:56 19.07
21:56 19.07
22:56 19.07
23:56 19.07
00:56 20.07
01:56 20.07
02:56 20.07
03:56 20.07
04:56 20.07
05:56 20.07
06:56 20.07
07:56 20.07
08:56 20.07
09:56 20.07
10:56 20.07
11:56 20.07
12:56 20.07
13:56 20.07
14:56 20.07
15:56 20.07
16:56 20.07
17:56 20.07
18:56 20.07
19:56 20.07
20:56 20.07
21:56 20.07
22:56 20.07
23:56 20.07
00:56 21.07
01:56 21.07
02:56 21.07
03:56 21.07
04:56 21.07
05:56 21.07
06:56 21.07
Ветер
(напр.,м/с)
Видим. Явления Облачность Т
(С)
Тd
(С)
f
(%)
Тe
(С)
Тes
(С)
Комфортность P
(гПа)
Po
(гПа)
Тmin
(С)
Tmax
(С)
R
(мм)
R24
(мм)
S
(см)
З 2 16 км ясно +28.9 +11.7 34 +30 +34 жарко 1015.0 999.3
ЮЗ 2 16 км ясно +30.6 +13.3 35 +32 +40 жарко 1014.9 999.3
З 4 16 км ясно +32.8 +11.1 27 +33 +41 жарко 1014.7 999.0 +21.1 +33.3
З 4 16 км ясно +34.4 +12.2 26 +34 +46 очень
жарко
1014.4 998.6
СЗ 5 16 км ясно +36.1 +11.7 23 +36 +46 очень
жарко
1013.9 998.0
З 4 16 км ясно +36.7 +12.8 24 +37 +51 опасность
солнечного
удара
1013.3 997.6
СЗ 4 16 км ясно +37.8 +13.3 23 +38 +51 опасность
солнечного
удара
1012.4 996.6
СЗ 4 16 км ясно +38.9 +14.4 24 +40 +51 опасность
солнечного
удара
1011.5 995.6
СЗ 5 16 км ясно +38.9 +14.4 24 +40 +46 очень
душно
1010.9 995.3 +32.8 +39.4
СЗ 5 16 км ясно +38.3 +15.6 26 +40 +44 очень
душно
1010.3 994.6
СЗ 5 16 км ясно +37.2 +16.7 30 +40 +42 очень
душно
1010.5 994.6
СЗ 3 16 км ясно +35.0 +17.2 35 +38 +39 очень
душно
1010.8 995.3
СЗ 2 16 км ясно +31.7 +17.8 44 +36 +36 очень
душно
1011.3 995.6
СЗ 2 16 км ясно +30.0 +17.2 46 +34 +34 очень
душно
1011.8 996.0
Ю 2 16 км ясно +27.2 +17.8 56 +31 +31 душно 1011.7 996.0 +27.2 +39.4
ЮВ 2 16 км ясно +26.1 +16.7 56 +30 +30 душно 1011.8 996.0
ЮВ 3 16 км ясно +25.0 +15.6 56 +28 +28 жарко 1011.6 996.0
Ю 2 16 км ясно +25.6 +15.6 54 +29 +29 душно 1011.5 996.0
ЮВ 3 16 км ясно +24.4 +15.0 56 +27 +27 жарко 1011.3 995.6
ЮВ 3 16 км ясно +23.3 +15.0 60 +27 +27 душно 1011.4 996.0
ЮВ 3 16 км ясно +23.3 +14.4 57 +27 +27 душно 1011.8 996.3 +22.8 +27.2
ЮВ 3 16 км ясно +23.3 +15.0 60 +27 +27 душно 1012.2 996.6
штиль 0 16 км ясно +24.4 +15.6 58 +27 +27 жарко 1012.8 997.0
Ю 2 16 км ясно +29.4 +13.9 39 +31 +32 жарко 1013.3 997.6
штиль 0 16 км ясно +31.7 +13.3 33 +33 +38 жарко 1013.1 997.3
нст 2 14 км ясно +33.3 +14.4 32 +35 +43 душно 1012.7 997.0
СЗ 4 16 км ясно +35.6 +12.2 24 +35 +44 очень
жарко
1012.3 996.6 +22.8 +35.6
нст 3 16 км ясно +36.7 +11.1 21 +36 +50 очень
жарко
1011.9 996.3
З 5 16 км ясно +38.3 +12.8 22 +38 +49 очень
жарко
1011.3 995.6
СЗ 5 10 км мгла ясно +38.9 +12.8 21 +39 +50 очень
жарко
1010.7 995.0
СЗ 5 16 км ясно +39.4 +13.3 21 +39 +50 очень
жарко
1010.2 994.6
СЗ 4 16 км ясно +40.6 +12.8 19 +40 +51 опасность
солнечного
удара
1009.5 994.0
СЗ 4 16 км ясно +41.1 +10.6 16 +40 +48 очень
жарко
1009.0 993.3 +35.6 +41.1
СЗ 5 16 км ясно +41.1 +8.3 14 +39 +43 очень
жарко
1008.6 993.0
СЗ 4 16 км ясно +39.4 +12.2 20 +39 +41 очень
жарко
1008.6 993.0
СЗ 2 16 км ясно +37.2 +14.4 26 +38 +39 душно 1008.9 993.3
штиль 0 16 км ясно +33.9 +16.1 35 +37 +37 очень
душно
1009.2 993.6
СЗ 3 16 км ясно +30.6 +16.7 43 +34 +34 очень
душно
1010.0 994.3
Ю 3 16 км ясно +27.8 +15.6 47 +31 +31 душно 1010.3 994.6 +27.8 +41.1
ЮВ 4 16 км ясно +26.7 +13.9 45 +29 +29 жарко 1010.5 995.0
Ю 3 16 км ясно +26.7 +11.1 38 +28 +28 жарко 1010.6 995.0
Ю 2 16 км ясно +24.4 +13.9 52 +27 +27 жарко 1010.6 995.0
Ю 2 16 км ясно +23.9 +13.3 51 +26 +26 жарко 1010.8 995.3
Ю 2 16 км ясно +23.9 +13.3 51 +26 +26 жарко 1011.0 995.3
ЮВ 2 16 км ясно +22.8 +13.9 57 +26 +26 жарко 1011.1 995.3 +22.8 +28.3
Ю 3 16 км ясно +21.7 +12.8 57 +24 +24 комфорт 1011.4 995.6
Ю 3 16 км ясно +23.3 +13.3 53 +26 +26 жарко 1011.8 996.3
ЮЗ 2 16 км ясно +26.1 +13.3 45 +28 +29 жарко 1012.2 996.6
Местоположение метеостанции Porterville Municipal Airport: широта 36.0333 долгота -119.0667 высота над уровнем моря 135 м.
В архиве по умолчанию представлена погода в Портервилле за последние 1-2 суток. Обновление информации о фактической погоде в базе происходит ежечасно! Архивные данные за месяц целиком и за предыдущие месяцы Вы можете получить, выбрав интересующий диапазон дат из раскрывающегося списка и нажав кнопку "Ввод!".
Внимание! Архив погоды МЕТАР в базе сайта по станциям, не включенным в климатический монитор, хранится не более 60 дней. Нет смысла пытаться выбрать более раннюю дату.
*Определитесь, кто Вы:
Внимание! Время в таблицах - местное (без учета летнего времени). Для получения всемирного времени необходимо вычесть поправку, которая равна -8 ч.
Смотрите также архив погоды в соседних городах и на ближайших метеорологических станциях:
Партнеры нашего сайта:      
Пояснения к столбцам:
  • Ветер - указаны скорость ветра в м/с - средняя за 10 мин, порывы в срок и между сроками (в фигурных скобках) и направление, откуда дует ветер: С - северный,
  • СВ - северо-восточный, В - восточный, ЮВ - юго-восточный, Ю - южный, ЮЗ - юго-западный, З - западный, СЗ - северо-западный.
  • Видимость - горизонтальная дальность видимости в метрах или километрах. При видимости от 1 до 10 км при отсутствии осадков обычно наблюдается дымка, при ухудшении видимости до 1 км и менее - туман. В сухую погоду видимость может ухудшаться дымом, пылью или мглою.
  • Явления - указаны атмосферные явления, наблюдавшиеся в срок или в последний час перед сроком; фигурными скобками обозначены явления, наблюдавшиеся между сроками (за 1-3 часа до срока); квадратными скобками обозначены град или гололедные отложения с указанием их диаметра в мм.
  • Облачность - указаны через наклонную черту общая и нижняя облачность в баллах и высота нижней границы облаков в метрах; квадратными скобками обозначены формы облаков: Ci - перистые, Cs - перисто-слоистые, Cc - перисто-кучевые, Ac - высококучевые, As - высокослоистые, Sc - слоисто-кучевые, Ns - слоисто-дождевые, Cu - кучевые, Cb - кучево-дождевые. Подробнее классификацию облаков см. в Атласе облаков (PDF).
  • T - Температура воздуха - температура, измеренная на высоте 2 м над землей.
  • Td - Температура точки росы - температура, при понижении до которой содержащийся в воздухе водяной пар достигнет насыщения.
  • f - Относительная влажность воздуха - влажноcть воздуха, измеренная на высоте 2 м над землей.
  • Te - Эффективная температура - температура, которую ощущает одетый по сезону человек в тени. Характеристика душности погоды. При расчете учитывается влияние влажности воздуха и скорости ветра на теплоощущения человека.
  • Tes - Эффективная температура на солнце - температура, которую ощущает человек, с поправкой на солнечный нагрев. Характеристика знойности погоды. Зависит от высоты солнца над горизонтом, облачности и скорости ветра. Ночью, в пасмурную погоду, а также при ветре 12 м/с и более поправка равна нулю.
  • P - Атмосферное давление - приведенное к уровню моря атмосферное давление.
  • Po - Атмосферное давление - измеренное на уровне метеостанции атмосферное давление.
  • Tmin - Минимальная температура - минимум температуры воздуха на высоте 2 м над землей.
  • Tmax - Максимальная температура - максимум температуры воздуха на высоте 2 м над землей.
  • R - Количество осадков - Количество выпавших осадков за период времени, мм. При наведении курсора мыши на число - период времени, за который выпало указанное количество осадков.
  • R24 - Количество осадков - Количество выпавших осадков за 24 часа, мм.
  • S - Снежный покров - Высота снежного покрова, см. При наведении курсора мыши на число - состояние снежного покрова и степень покрытия местности в баллах.